Time,TemperatureF,DewpointF,PressureIn,WindDirection,WindDirectionDegrees,WindSpeedMPH,WindSpeedGustMPH,Humidity,HourlyPrecipIn,Conditions,Clouds,dailyrainin,SoftwareType,DateUTC
2013-04-23 00:02:00,64.2,53.4,29.89,ESE,113,2.0,6.0,68,0.00,,,0.00,meteohub,2013-04-23 05:02:00,
2013-04-23 00:07:00,64.0,53.6,29.89,SSE,152,1.0,6.0,69,0.00,,,0.00,meteohub,2013-04-23 05:07:00,
2013-04-23 00:12:00,64.0,53.6,29.89,SSE,147,3.0,6.0,69,0.00,,,0.00,meteohub,2013-04-23 05:12:00,
2013-04-23 00:17:00,63.9,53.4,29.89,SSW,197,2.0,6.0,69,0.00,,,0.00,meteohub,2013-04-23 05:17:00,
2013-04-23 00:22:00,63.9,53.4,29.90,SSE,161,0.0,6.0,69,0.00,,,0.00,meteohub,2013-04-23 05:22:00,
2013-04-23 00:27:00,63.7,53.8,29.90,SSE,165,2.0,6.0,70,0.00,,,0.00,meteohub,2013-04-23 05:27:00,
2013-04-23 00:32:00,63.7,53.8,29.89,SSE,148,1.0,7.0,70,0.00,,,0.00,meteohub,2013-04-23 05:32:00,
2013-04-23 00:37:00,63.7,53.8,29.90,SE,137,5.0,7.0,70,0.00,,,0.00,meteohub,2013-04-23 05:37:00,
2013-04-23 00:42:00,63.7,53.8,29.90,SE,146,1.0,7.0,70,0.00,,,0.00,meteohub,2013-04-23 05:42:00,
2013-04-23 00:47:00,63.7,53.8,29.90,ESE,115,2.0,6.0,70,0.00,,,0.00,meteohub,2013-04-23 05:47:00,
2013-04-23 00:52:00,63.7,53.8,29.90,SE,144,2.0,7.0,70,0.00,,,0.00,meteohub,2013-04-23 05:52:00,
2013-04-23 00:57:00,63.7,54.1,29.90,SE,126,3.0,8.0,71,0.00,,,0.00,meteohub,2013-04-23 05:57:00,
2013-04-23 01:02:00,63.9,54.3,29.90,SE,143,5.0,8.0,71,0.00,,,0.00,meteohub,2013-04-23 06:02:00,
2013-04-23 01:08:00,63.9,54.3,29.90,SSE,157,5.0,9.0,71,0.00,,,0.00,meteohub,2013-04-23 06:08:00,
2013-04-23 01:13:00,63.9,54.7,29.90,SSE,155,5.0,9.0,72,0.00,,,0.00,meteohub,2013-04-23 06:13:00,
2013-04-23 01:18:00,63.9,54.7,29.90,SE,142,5.0,9.0,72,0.00,,,0.00,meteohub,2013-04-23 06:18:00,
2013-04-23 01:23:00,63.9,54.7,29.90,SE,142,5.0,9.0,72,0.00,,,0.00,meteohub,2013-04-23 06:23:00,
2013-04-23 01:28:00,63.7,54.9,29.90,SSE,156,4.0,9.0,73,0.00,,,0.00,meteohub,2013-04-23 06:28:00,
2013-04-23 01:33:00,63.7,55.2,29.90,SSE,166,2.0,9.0,74,0.00,,,0.00,meteohub,2013-04-23 06:33:00,
2013-04-23 01:38:00,63.5,55.0,29.89,SSE,152,4.0,11.0,74,0.00,,,0.00,meteohub,2013-04-23 06:38:00,
2013-04-23 01:43:00,63.5,55.4,29.89,SE,137,2.0,11.0,75,0.00,,,0.00,meteohub,2013-04-23 06:43:00,
2013-04-23 01:48:00,63.3,55.2,29.89,SSE,161,2.0,10.0,75,0.00,,,0.00,meteohub,2013-04-23 06:48:00,
2013-04-23 01:53:00,63.3,55.6,29.90,SE,138,2.0,10.0,76,0.00,,,0.00,meteohub,2013-04-23 06:53:00,
2013-04-23 01:58:00,63.1,55.8,29.89,East,88,5.0,10.0,77,0.00,,,0.00,meteohub,2013-04-23 06:58:00,
2013-04-23 02:03:00,63.1,55.8,29.89,SE,137,1.0,11.0,77,0.00,,,0.00,meteohub,2013-04-23 07:03:00,
2013-04-23 02:08:00,63.0,55.6,29.88,South,185,2.0,11.0,77,0.00,,,0.00,meteohub,2013-04-23 07:08:00,
2013-04-23 02:13:00,63.0,55.9,29.88,SSE,157,4.0,11.0,78,0.00,,,0.00,meteohub,2013-04-23 07:13:00,
2013-04-23 02:18:00,62.8,56.1,29.88,SE,137,4.0,7.0,79,0.00,,,0.00,meteohub,2013-04-23 07:18:00,
2013-04-23 02:23:00,62.8,56.1,29.88,SSE,166,1.0,9.0,79,0.00,,,0.00,meteohub,2013-04-23 07:23:00,
2013-04-23 02:28:00,62.6,55.9,29.87,South,179,3.0,9.0,79,0.00,,,0.00,meteohub,2013-04-23 07:28:00,
2013-04-23 02:33:00,62.4,56.1,29.87,ESE,110,1.0,9.0,80,0.00,,,0.00,meteohub,2013-04-23 07:33:00,
2013-04-23 02:38:00,62.2,55.9,29.87,South,191,1.0,8.0,80,0.00,,,0.00,meteohub,2013-04-23 07:38:00,
2013-04-23 02:43:00,62.1,56.1,29.86,SSE,161,4.0,8.0,81,0.00,,,0.00,meteohub,2013-04-23 07:43:00,
2013-04-23 02:48:00,62.1,56.1,29.86,SE,137,1.0,10.0,81,0.00,,,0.00,meteohub,2013-04-23 07:48:00,
2013-04-23 02:53:00,61.9,55.9,29.86,South,191,2.0,10.0,81,0.00,,,0.00,meteohub,2013-04-23 07:53:00,
2013-04-23 02:58:00,61.9,56.3,29.85,SSE,149,4.0,11.0,82,0.00,,,0.00,meteohub,2013-04-23 07:58:00,
2013-04-23 03:03:00,61.9,56.3,29.84,SSW,199,3.0,11.0,82,0.00,,,0.00,meteohub,2013-04-23 08:03:00,
2013-04-23 03:08:00,61.7,56.1,29.84,NE,53,3.0,11.0,82,0.00,,,0.00,meteohub,2013-04-23 08:08:00,
2013-04-23 03:13:00,61.5,55.9,29.84,South,174,3.0,12.0,82,0.00,,,0.00,meteohub,2013-04-23 08:13:00,
2013-04-23 03:18:00,61.5,55.9,29.84,SSE,148,2.0,12.0,82,0.00,,,0.00,meteohub,2013-04-23 08:18:00,
2013-04-23 03:23:00,61.5,55.9,29.83,SSE,150,7.0,8.0,82,0.00,,,0.00,meteohub,2013-04-23 08:23:00,
2013-04-23 03:29:00,61.3,55.4,29.83,SSE,148,4.0,9.0,81,0.00,,,0.00,meteohub,2013-04-23 08:29:00,
2013-04-23 03:34:00,61.3,55.4,29.83,ESE,115,5.0,9.0,81,0.00,,,0.00,meteohub,2013-04-23 08:34:00,
2013-04-23 03:39:00,61.2,55.2,29.83,SE,130,3.0,9.0,81,0.00,,,0.00,meteohub,2013-04-23 08:39:00,
2013-04-23 03:44:00,61.2,55.6,29.83,SE,127,5.0,8.0,82,0.00,,,0.00,meteohub,2013-04-23 08:44:00,
2013-04-23 03:49:00,61.0,55.4,29.83,SE,140,4.0,9.0,82,0.00,,,0.00,meteohub,2013-04-23 08:49:00,
2013-04-23 03:54:00,61.0,55.4,29.83,SSE,163,4.0,9.0,82,0.00,,,0.00,meteohub,2013-04-23 08:54:00,
2013-04-23 03:59:00,60.6,55.4,29.83,South,185,2.0,7.0,83,0.00,,,0.00,meteohub,2013-04-23 08:59:00,
2013-04-23 04:04:00,60.6,55.4,29.83,South,176,2.0,9.0,83,0.00,,,0.00,meteohub,2013-04-23 09:04:00,
2013-04-23 04:09:00,60.6,55.8,29.83,SSE,149,2.0,9.0,84,0.00,,,0.00,meteohub,2013-04-23 09:09:00,
2013-04-23 04:14:00,60.4,55.9,29.83,SSE,157,2.0,9.0,85,0.00,,,0.00,meteohub,2013-04-23 09:14:00,
2013-04-23 04:19:00,60.4,56.3,29.83,SSW,212,0.0,9.0,86,0.00,,,0.00,meteohub,2013-04-23 09:19:00,
2013-04-23 04:24:00,60.3,56.1,29.83,SSE,155,2.0,10.0,86,0.00,,,0.00,meteohub,2013-04-23 09:24:00,
2013-04-23 04:29:00,60.3,56.3,29.82,SSE,165,1.0,10.0,87,0.00,,,0.00,meteohub,2013-04-23 09:29:00,
2013-04-23 04:34:00,60.3,56.7,29.82,SE,142,0.0,10.0,88,0.00,,,0.00,meteohub,2013-04-23 09:34:00,
2013-04-23 04:39:00,60.1,56.5,29.82,East,85,3.0,10.0,88,0.00,,,0.00,meteohub,2013-04-23 09:39:00,
2013-04-23 04:44:00,60.1,56.8,29.82,South,186,5.0,10.0,89,0.00,,,0.00,meteohub,2013-04-23 09:44:00,
2013-04-23 04:49:00,60.1,56.8,29.82,ESE,120,5.0,10.0,89,0.00,,,0.00,meteohub,2013-04-23 09:49:00,
2013-04-23 04:54:00,60.1,57.2,29.82,SSE,149,3.0,10.0,90,0.00,,,0.00,meteohub,2013-04-23 09:54:00,
2013-04-23 04:59:00,60.1,57.2,29.83,SE,143,4.0,9.0,90,0.00,,,0.00,meteohub,2013-04-23 09:59:00,
2013-04-23 05:04:00,60.3,57.4,29.83,SW,234,1.0,9.0,90,0.00,,,0.00,meteohub,2013-04-23 10:04:00,
2013-04-23 05:09:00,60.3,57.4,29.83,SE,138,5.0,9.0,90,0.00,,,0.00,meteohub,2013-04-23 10:09:00,
2013-04-23 05:14:00,60.4,57.6,29.84,SE,142,2.0,9.0,90,0.00,,,0.00,meteohub,2013-04-23 10:14:00,
2013-04-23 05:19:00,60.4,57.2,29.84,South,188,3.0,10.0,89,0.00,,,0.00,meteohub,2013-04-23 10:19:00,
2013-04-23 05:24:00,60.4,57.2,29.84,South,189,4.0,13.0,89,0.00,,,0.00,meteohub,2013-04-23 10:24:00,
2013-04-23 05:29:00,60.6,57.4,29.84,SSW,199,3.0,13.0,89,0.00,,,0.00,meteohub,2013-04-23 10:29:00,
2013-04-23 05:34:00,60.6,57.4,29.84,SSE,155,2.0,13.0,89,0.00,,,0.00,meteohub,2013-04-23 10:34:00,
2013-04-23 05:39:00,60.4,57.2,29.84,South,173,7.0,9.0,89,0.00,,,0.00,meteohub,2013-04-23 10:39:00,
2013-04-23 05:44:00,60.4,57.2,29.84,SE,132,4.0,9.0,89,0.00,,,0.00,meteohub,2013-04-23 10:44:00,
2013-04-23 05:49:00,60.6,57.4,29.84,SE,143,1.0,8.0,89,0.00,,,0.00,meteohub,2013-04-23 10:49:00,
2013-04-23 05:54:00,60.6,57.4,29.85,SE,135,2.0,10.0,89,0.00,,,0.00,meteohub,2013-04-23 10:54:00,
2013-04-23 06:00:00,60.8,57.2,29.85,South,187,3.0,10.0,88,0.00,,,0.00,meteohub,2013-04-23 11:00:00,
2013-04-23 06:05:00,60.8,57.2,29.85,ESE,123,8.0,11.0,88,0.00,,,0.00,meteohub,2013-04-23 11:05:00,
2013-04-23 06:10:00,61.0,57.4,29.85,SSE,168,3.0,11.0,88,0.00,,,0.00,meteohub,2013-04-23 11:10:00,
2013-04-23 06:15:00,61.0,57.4,29.86,South,170,2.0,11.0,88,0.00,,,0.00,meteohub,2013-04-23 11:15:00,
2013-04-23 06:20:00,60.8,57.2,29.86,SW,217,3.0,10.0,88,0.00,,,0.00,meteohub,2013-04-23 11:20:00,
2013-04-23 06:25:00,60.8,57.2,29.87,SW,215,3.0,8.0,88,0.00,,,0.00,meteohub,2013-04-23 11:25:00,
2013-04-23 06:30:00,61.0,57.4,29.89,NW,310,3.0,8.0,88,0.00,,,0.00,meteohub,2013-04-23 11:30:00,
2013-04-23 06:35:00,61.0,57.4,29.92,ESE,111,0.0,7.0,88,0.00,,,0.00,meteohub,2013-04-23 11:35:00,
2013-04-23 06:40:00,61.2,57.6,29.92,West,279,0.0,7.0,88,0.00,,,0.00,meteohub,2013-04-23 11:40:00,
2013-04-23 06:45:00,61.2,57.6,29.91,SSE,165,0.0,6.0,88,0.00,,,0.00,meteohub,2013-04-23 11:45:00,
2013-04-23 06:50:00,61.2,57.6,29.91,SSE,165,0.0,2.0,88,0.00,,,0.00,meteohub,2013-04-23 11:50:00,
2013-04-23 06:55:00,61.2,57.9,29.92,SSE,165,0.0,2.0,89,0.00,,,0.00,meteohub,2013-04-23 11:55:00,
2013-04-23 07:00:00,61.2,57.6,29.93,SSE,165,1.0,1.0,88,0.00,,,0.00,meteohub,2013-04-23 12:00:00,
2013-04-23 07:05:00,61.3,58.1,29.93,SSE,165,0.0,1.0,89,0.00,,,0.00,meteohub,2013-04-23 12:05:00,
2013-04-23 07:10:00,61.2,57.6,29.93,SSW,200,0.0,2.0,88,0.00,,,0.00,meteohub,2013-04-23 12:10:00,
2013-04-23 07:15:00,61.3,57.7,29.93,South,186,1.0,2.0,88,0.00,,,0.00,meteohub,2013-04-23 12:15:00,
2013-04-23 07:20:00,61.3,57.7,29.93,South,186,0.0,2.0,88,0.00,,,0.00,meteohub,2013-04-23 12:20:00,
2013-04-23 07:25:00,61.3,57.7,29.94,ESE,107,0.0,2.0,88,0.00,,,0.00,meteohub,2013-04-23 12:25:00,
2013-04-23 07:30:00,61.3,57.7,29.94,ESE,107,1.0,2.0,88,0.00,,,0.00,meteohub,2013-04-23 12:30:00,
2013-04-23 07:35:00,61.5,57.9,29.94,ESE,107,0.0,2.0,88,0.00,,,0.00,meteohub,2013-04-23 12:35:00,
2013-04-23 07:40:00,61.5,57.9,29.94,ESE,123,0.0,2.0,88,0.00,,,0.00,meteohub,2013-04-23 12:40:00,
2013-04-23 07:45:00,61.5,58.3,29.95,ESE,123,0.0,2.0,89,0.00,,,0.00,meteohub,2013-04-23 12:45:00,
2013-04-23 07:50:00,61.5,58.3,29.96,ESE,123,0.0,2.0,89,0.00,,,0.00,meteohub,2013-04-23 12:50:00,
2013-04-23 07:55:00,61.5,58.3,29.95,ESE,123,1.0,1.0,89,0.00,,,0.00,meteohub,2013-04-23 12:55:00,
2013-04-23 08:00:00,61.5,58.6,29.95,ESE,123,0.0,2.0,90,0.00,,,0.00,meteohub,2013-04-23 13:00:00,
2013-04-23 08:05:00,61.5,58.6,29.96,SSE,163,0.0,2.0,90,0.00,,,0.00,meteohub,2013-04-23 13:05:00,
2013-04-23 08:10:00,61.5,58.6,29.96,SE,135,0.0,4.0,90,0.00,,,0.00,meteohub,2013-04-23 13:10:00,
2013-04-23 08:15:00,61.3,58.6,29.96,SE,136,0.0,4.0,91,0.00,,,0.00,meteohub,2013-04-23 13:15:00,
2013-04-23 08:20:00,61.3,58.6,29.96,SE,144,0.0,4.0,91,0.00,,,0.00,meteohub,2013-04-23 13:20:00,
2013-04-23 08:25:00,61.3,58.6,29.95,SE,143,1.0,4.0,91,0.00,,,0.00,meteohub,2013-04-23 13:25:00,
2013-04-23 08:30:00,61.3,59.0,29.96,ESE,121,2.0,4.0,92,0.00,,,0.00,meteohub,2013-04-23 13:30:00,
2013-04-23 08:35:00,61.3,59.0,29.96,SSE,149,3.0,4.0,92,0.00,,,0.00,meteohub,2013-04-23 13:35:00,
2013-04-23 08:40:00,61.3,59.0,29.96,SE,136,0.0,5.0,92,0.00,,,0.00,meteohub,2013-04-23 13:40:00,
2013-04-23 08:45:00,61.3,59.4,29.96,SE,139,1.0,5.0,93,0.00,,,0.00,meteohub,2013-04-23 13:45:00,
2013-04-23 08:50:00,61.3,59.4,29.96,East,97,3.0,5.0,93,0.00,,,0.00,meteohub,2013-04-23 13:50:00,
2013-04-23 08:55:00,61.3,59.4,29.96,SE,126,0.0,5.0,93,0.00,,,0.00,meteohub,2013-04-23 13:55:00,
2013-04-23 09:00:00,61.3,59.4,29.96,SE,126,5.0,5.0,93,0.00,,,0.00,meteohub,2013-04-23 14:00:00,
2013-04-23 09:05:00,61.5,59.5,29.96,ESE,109,2.0,7.0,93,0.00,,,0.00,meteohub,2013-04-23 14:05:00,
2013-04-23 09:10:00,61.5,59.5,29.96,SSE,148,1.0,7.0,93,0.00,,,0.00,meteohub,2013-04-23 14:10:00,
2013-04-23 09:15:00,61.5,59.5,29.96,ESE,117,0.0,7.0,93,0.00,,,0.00,meteohub,2013-04-23 14:15:00,
2013-04-23 09:20:00,61.9,60.1,29.96,SE,140,4.0,5.0,94,0.00,,,0.00,meteohub,2013-04-23 14:20:00,
2013-04-23 09:25:00,62.1,60.1,29.96,SE,142,0.0,6.0,93,0.00,,,0.00,meteohub,2013-04-23 14:25:00,
2013-04-23 09:30:00,62.4,60.4,29.96,SSW,196,3.0,7.0,93,0.00,,,0.00,meteohub,2013-04-23 14:30:00,
2013-04-23 09:35:00,62.8,60.8,29.96,SSE,163,1.0,7.0,93,0.00,,,0.00,meteohub,2013-04-23 14:35:00,
2013-04-23 09:40:00,63.1,60.8,29.96,SSE,161,2.0,7.0,92,0.00,,,0.00,meteohub,2013-04-23 14:40:00,
2013-04-23 09:45:00,63.7,61.0,29.96,SSE,167,4.0,8.0,91,0.00,,,0.00,meteohub,2013-04-23 14:45:00,
2013-04-23 09:50:00,64.2,61.2,29.96,South,188,1.0,8.0,90,0.00,,,0.00,meteohub,2013-04-23 14:50:00,
2013-04-23 09:55:00,64.8,61.7,29.96,South,185,4.0,8.0,90,0.00,,,0.00,meteohub,2013-04-23 14:55:00,
2013-04-23 10:00:00,65.5,62.2,29.95,SSE,148,2.0,6.0,89,0.00,,,0.00,meteohub,2013-04-23 15:00:00,
2013-04-23 10:05:00,66.6,63.0,29.96,SSE,167,1.0,6.0,88,0.00,,,0.00,meteohub,2013-04-23 15:05:00,
2013-04-23 10:10:00,67.6,63.0,29.96,SE,140,2.0,7.0,85,0.00,,,0.00,meteohub,2013-04-23 15:10:00,
2013-04-23 10:15:00,68.4,62.6,29.96,SSW,201,4.0,7.0,82,0.00,,,0.00,meteohub,2013-04-23 15:15:00,
2013-04-23 10:20:00,68.9,63.1,29.95,SSE,159,3.0,8.0,82,0.00,,,0.00,meteohub,2013-04-23 15:20:00,
2013-04-23 10:25:00,69.6,63.1,29.96,SSE,168,5.0,8.0,80,0.00,,,0.00,meteohub,2013-04-23 15:25:00,
2013-04-23 10:30:00,70.3,63.1,29.96,ESE,118,4.0,8.0,78,0.00,,,0.00,meteohub,2013-04-23 15:30:00,
2013-04-23 10:35:00,71.1,63.5,29.96,WSW,237,1.0,10.0,77,0.00,,,0.00,meteohub,2013-04-23 15:35:00,
2013-04-23 10:40:00,71.4,63.9,29.96,SE,130,3.0,11.0,77,0.00,,,0.00,meteohub,2013-04-23 15:40:00,
2013-04-23 10:45:00,71.2,63.3,29.96,SSE,163,4.0,14.0,76,0.00,,,0.00,meteohub,2013-04-23 15:45:00,
2013-04-23 10:50:00,71.1,63.1,29.96,SSW,213,2.0,14.0,76,0.00,,,0.00,meteohub,2013-04-23 15:50:00,
2013-04-23 10:55:00,71.1,62.8,29.96,SSE,164,2.0,14.0,75,0.00,,,0.00,meteohub,2013-04-23 15:55:00,
2013-04-23 11:00:00,71.1,62.8,29.96,SSW,207,3.0,12.0,75,0.00,,,0.00,meteohub,2013-04-23 16:00:00,
2013-04-23 11:05:00,71.1,63.1,29.97,South,182,7.0,12.0,76,0.00,,,0.00,meteohub,2013-04-23 16:05:00,
2013-04-23 11:10:00,71.1,63.1,29.97,South,189,2.0,9.0,76,0.00,,,0.00,meteohub,2013-04-23 16:10:00,
2013-04-23 11:15:00,71.1,62.8,29.97,SSE,161,3.0,9.0,75,0.00,,,0.00,meteohub,2013-04-23 16:15:00,
2013-04-23 11:20:00,71.2,63.0,29.97,SSE,149,3.0,11.0,75,0.00,,,0.00,meteohub,2013-04-23 16:20:00,
2013-04-23 11:26:00,71.2,63.3,29.97,SW,215,3.0,11.0,76,0.00,,,0.00,meteohub,2013-04-23 16:26:00,
2013-04-23 11:31:00,71.4,63.1,29.97,South,180,5.0,11.0,75,0.00,,,0.00,meteohub,2013-04-23 16:31:00,
2013-04-23 11:36:00,71.8,63.5,29.96,SE,134,2.0,10.0,75,0.00,,,0.00,meteohub,2013-04-23 16:36:00,
2013-04-23 11:41:00,72.1,63.3,29.96,SW,230,2.0,8.0,74,0.00,,,0.00,meteohub,2013-04-23 16:41:00,
2013-04-23 11:46:00,72.1,63.3,29.96,SSW,209,2.0,8.0,74,0.00,,,0.00,meteohub,2013-04-23 16:46:00,
2013-04-23 11:51:00,72.7,63.9,29.96,SE,146,1.0,8.0,74,0.00,,,0.00,meteohub,2013-04-23 16:51:00,
2013-04-23 11:56:00,73.2,64.0,29.96,West,278,3.0,11.0,73,0.00,,,0.00,meteohub,2013-04-23 16:56:00,
2013-04-23 12:01:00,73.9,64.4,29.96,South,172,5.0,11.0,72,0.00,,,0.00,meteohub,2013-04-23 17:01:00,
2013-04-23 12:06:00,74.8,64.8,29.96,ESE,115,5.0,10.0,71,0.00,,,0.00,meteohub,2013-04-23 17:06:00,
2013-04-23 12:11:00,75.0,64.6,29.96,SSE,149,6.0,10.0,70,0.00,,,0.00,meteohub,2013-04-23 17:11:00,
2013-04-23 12:16:00,75.2,64.4,29.96,SSW,211,3.0,10.0,69,0.00,,,0.00,meteohub,2013-04-23 17:16:00,
2013-04-23 12:21:00,75.0,64.2,29.95,South,170,2.0,10.0,69,0.00,,,0.00,meteohub,2013-04-23 17:21:00,
2013-04-23 12:26:00,75.0,64.9,29.95,ESE,103,1.0,8.0,71,0.00,,,0.00,meteohub,2013-04-23 17:26:00,
2013-04-23 12:31:00,75.4,64.6,29.95,SSW,197,3.0,9.0,69,0.00,,,0.00,meteohub,2013-04-23 17:31:00,
2013-04-23 12:36:00,75.7,65.3,29.94,SSE,149,6.0,9.0,70,0.00,,,0.00,meteohub,2013-04-23 17:36:00,
2013-04-23 12:41:00,76.3,65.3,29.94,SW,219,3.0,9.0,69,0.00,,,0.00,meteohub,2013-04-23 17:41:00,
2013-04-23 12:46:00,76.5,65.1,29.94,SSE,167,5.0,10.0,68,0.00,,,0.00,meteohub,2013-04-23 17:46:00,
2013-04-23 12:51:00,76.8,64.9,29.94,West,259,3.0,16.0,67,0.00,,,0.00,meteohub,2013-04-23 17:51:00,
2013-04-23 12:56:00,77.7,64.6,29.94,SW,233,4.0,16.0,64,0.00,,,0.00,meteohub,2013-04-23 17:56:00,
2013-04-23 13:01:00,78.1,64.4,29.93,SE,129,2.0,16.0,63,0.00,,,0.00,meteohub,2013-04-23 18:01:00,
2013-04-23 13:06:00,77.9,65.1,29.93,SSE,158,3.0,12.0,65,0.00,,,0.00,meteohub,2013-04-23 18:06:00,
2013-04-23 13:11:00,78.4,64.8,29.93,SE,138,1.0,11.0,63,0.00,,,0.00,meteohub,2013-04-23 18:11:00,
2013-04-23 13:16:00,78.4,63.9,29.92,SSE,167,3.0,13.0,61,0.00,,,0.00,meteohub,2013-04-23 18:16:00,
2013-04-23 13:21:00,78.4,64.4,29.92,WSW,241,4.0,13.0,62,0.00,,,0.00,meteohub,2013-04-23 18:21:00,
2013-04-23 13:26:00,78.8,65.1,29.92,SSE,161,1.0,10.0,63,0.00,,,0.00,meteohub,2013-04-23 18:26:00,
2013-04-23 13:31:00,79.0,65.3,29.91,SSW,213,3.0,10.0,63,0.00,,,0.00,meteohub,2013-04-23 18:31:00,
2013-04-23 13:36:00,79.3,64.8,29.92,SSE,150,4.0,10.0,61,0.00,,,0.00,meteohub,2013-04-23 18:36:00,
2013-04-23 13:41:00,79.5,64.4,29.91,SSW,211,2.0,10.0,60,0.00,,,0.00,meteohub,2013-04-23 18:41:00,
2013-04-23 13:47:00,79.9,64.8,29.91,SW,215,3.0,13.0,60,0.00,,,0.00,meteohub,2013-04-23 18:47:00,
2013-04-23 13:52:00,80.1,64.4,29.91,South,184,2.0,13.0,59,0.00,,,0.00,meteohub,2013-04-23 18:52:00,
2013-04-23 13:57:00,80.1,64.4,29.91,SSW,208,3.0,13.0,59,0.00,,,0.00,meteohub,2013-04-23 18:57:00,
2013-04-23 14:02:00,79.7,64.0,29.91,East,96,2.0,10.0,59,0.00,,,0.00,meteohub,2013-04-23 19:02:00,
2013-04-23 14:07:00,79.5,63.9,29.91,South,191,3.0,10.0,59,0.00,,,0.00,meteohub,2013-04-23 19:07:00,
2013-04-23 14:12:00,79.5,63.5,29.91,SW,215,4.0,10.0,58,0.00,,,0.00,meteohub,2013-04-23 19:12:00,
2013-04-23 14:17:00,79.5,63.9,29.91,SSW,208,5.0,9.0,59,0.00,,,0.00,meteohub,2013-04-23 19:17:00,
2013-04-23 14:22:00,79.9,64.2,29.90,SW,221,1.0,10.0,59,0.00,,,0.00,meteohub,2013-04-23 19:22:00,
2013-04-23 14:27:00,80.2,65.5,29.90,SW,215,3.0,10.0,61,0.00,,,0.00,meteohub,2013-04-23 19:27:00,
2013-04-23 14:32:00,80.4,64.2,29.90,SW,223,2.0,10.0,58,0.00,,,0.00,meteohub,2013-04-23 19:32:00,
2013-04-23 14:37:00,80.2,64.0,29.90,SW,236,1.0,9.0,58,0.00,,,0.00,meteohub,2013-04-23 19:37:00,
2013-04-23 14:42:00,80.2,63.7,29.90,SSE,164,6.0,10.0,57,0.00,,,0.00,meteohub,2013-04-23 19:42:00,
2013-04-23 14:47:00,80.2,64.0,29.90,SSE,165,1.0,12.0,58,0.00,,,0.00,meteohub,2013-04-23 19:47:00,
2013-04-23 14:52:00,78.8,62.2,29.91,WSW,248,4.0,12.0,57,0.00,,,0.00,meteohub,2013-04-23 19:52:00,
2013-04-23 14:57:00,76.1,61.7,29.91,WNW,296,2.0,11.0,61,0.00,,,0.00,meteohub,2013-04-23 19:57:00,
2013-04-23 15:02:00,73.6,60.6,29.91,East,84,2.0,14.0,64,0.00,,,0.00,meteohub,2013-04-23 20:02:00,
2013-04-23 15:07:00,71.6,60.1,29.91,WNW,301,4.0,14.0,67,0.00,,,0.00,meteohub,2013-04-23 20:07:00,
2013-04-23 15:12:00,70.3,59.4,29.91,West,270,4.0,14.0,68,0.00,,,0.00,meteohub,2013-04-23 20:12:00,
2013-04-23 15:17:00,69.4,59.2,29.91,West,281,4.0,14.0,70,0.00,,,0.00,meteohub,2013-04-23 20:17:00,
2013-04-23 15:22:00,68.7,59.0,29.92,West,262,5.0,14.0,71,0.00,,,0.00,meteohub,2013-04-23 20:22:00,
2013-04-23 15:27:00,68.0,57.9,29.92,NW,321,3.0,14.0,70,0.00,,,0.00,meteohub,2013-04-23 20:27:00,
2013-04-23 15:32:00,66.9,57.2,29.92,WNW,297,0.0,11.0,71,0.00,,,0.00,meteohub,2013-04-23 20:32:00,
2013-04-23 15:37:00,66.7,57.4,29.92,West,279,6.0,11.0,72,0.00,,,0.00,meteohub,2013-04-23 20:37:00,
2013-04-23 15:42:00,66.4,57.0,29.92,WNW,300,2.0,11.0,72,0.00,,,0.00,meteohub,2013-04-23 20:42:00,
2013-04-23 15:48:00,66.4,57.0,29.92,West,263,1.0,8.0,72,0.00,,,0.00,meteohub,2013-04-23 20:48:00,
2013-04-23 15:53:00,65.8,56.5,29.92,WSW,247,1.0,8.0,72,0.00,,,0.00,meteohub,2013-04-23 20:53:00,
2013-04-23 15:58:00,65.7,57.2,29.92,West,271,2.0,8.0,74,0.00,,,0.00,meteohub,2013-04-23 20:58:00,
2013-04-23 16:03:00,65.5,56.3,29.92,WNW,288,0.0,8.0,72,0.00,,,0.00,meteohub,2013-04-23 21:03:00,
2013-04-23 16:08:00,65.1,55.9,29.93,WSW,247,3.0,7.0,72,0.00,,,0.00,meteohub,2013-04-23 21:08:00,
2013-04-23 16:13:00,64.6,55.4,29.92,WNW,302,1.0,7.0,72,0.00,,,0.00,meteohub,2013-04-23 21:13:00,
2013-04-23 16:18:00,64.2,55.4,29.92,NNW,328,3.0,7.0,73,0.00,,,0.00,meteohub,2013-04-23 21:18:00,
2013-04-23 16:23:00,63.9,55.4,29.92,NNE,16,2.0,7.0,74,0.00,,,0.00,meteohub,2013-04-23 21:23:00,
2013-04-23 16:28:00,63.1,54.7,29.93,NNW,330,3.0,7.0,74,0.00,,,0.00,meteohub,2013-04-23 21:28:00,
2013-04-23 16:33:00,63.0,54.9,29.93,WNW,302,5.0,7.0,75,0.00,,,0.00,meteohub,2013-04-23 21:33:00,
2013-04-23 16:38:00,62.8,54.7,29.93,West,281,2.0,11.0,75,0.00,,,0.00,meteohub,2013-04-23 21:38:00,
2013-04-23 16:43:00,62.4,54.7,29.93,WNW,297,1.0,11.0,76,0.00,,,0.00,meteohub,2013-04-23 21:43:00,
2013-04-23 16:48:00,62.4,54.7,29.93,West,281,3.0,11.0,76,0.00,,,0.00,meteohub,2013-04-23 21:48:00,
2013-04-23 16:53:00,62.6,54.5,29.93,West,275,4.0,9.0,75,0.00,,,0.00,meteohub,2013-04-23 21:53:00,
2013-04-23 16:58:00,63.1,55.4,29.92,West,281,1.0,9.0,76,0.00,,,0.00,meteohub,2013-04-23 21:58:00,
2013-04-23 17:03:00,63.3,54.9,29.93,NW,325,4.0,9.0,74,0.00,,,0.00,meteohub,2013-04-23 22:03:00,
2013-04-23 17:08:00,63.3,54.5,29.93,WNW,285,2.0,11.0,73,0.00,,,0.00,meteohub,2013-04-23 22:08:00,
2013-04-23 17:13:00,63.0,54.5,29.92,NW,308,4.0,11.0,74,0.00,,,0.00,meteohub,2013-04-23 22:13:00,
2013-04-23 17:18:00,62.8,54.7,29.93,NNW,333,1.0,11.0,75,0.00,,,0.00,meteohub,2013-04-23 22:18:00,
2013-04-23 17:23:00,62.4,54.0,29.93,NW,311,1.0,11.0,74,0.00,,,0.00,meteohub,2013-04-23 22:23:00,
2013-04-23 17:28:00,62.1,53.6,29.93,WNW,302,1.0,9.0,74,0.00,,,0.00,meteohub,2013-04-23 22:28:00,
2013-04-23 17:33:00,61.9,53.8,29.93,NW,304,3.0,7.0,75,0.00,,,0.00,meteohub,2013-04-23 22:33:00,
2013-04-23 17:38:00,61.3,53.1,29.93,NNW,330,1.0,11.0,74,0.00,,,0.00,meteohub,2013-04-23 22:38:00,
2013-04-23 17:43:00,60.6,52.7,29.93,West,261,2.0,11.0,75,0.00,,,0.00,meteohub,2013-04-23 22:43:00,
2013-04-23 17:48:00,60.4,52.9,29.94,WNW,282,1.0,11.0,76,0.00,,,0.00,meteohub,2013-04-23 22:48:00,
2013-04-23 17:53:00,60.1,52.5,29.94,West,277,4.0,9.0,76,0.00,,,0.00,meteohub,2013-04-23 22:53:00,
2013-04-23 17:58:00,59.7,52.2,29.94,NW,314,8.0,9.0,76,0.00,,,0.00,meteohub,2013-04-23 22:58:00,
2013-04-23 18:03:00,59.2,52.0,29.94,WNW,283,3.0,9.0,77,0.00,,,0.00,meteohub,2013-04-23 23:03:00,
2013-04-23 18:08:00,58.6,51.4,29.95,WNW,296,5.0,11.0,77,0.00,,,0.00,meteohub,2013-04-23 23:08:00,
2013-04-23 18:13:00,58.1,50.9,29.95,NNW,348,2.0,11.0,77,0.00,,,0.00,meteohub,2013-04-23 23:13:00,
2013-04-23 18:18:00,57.6,50.4,29.96,West,267,4.0,11.0,77,0.00,,,0.00,meteohub,2013-04-23 23:18:00,
2013-04-23 18:23:00,57.0,50.2,29.96,North,355,1.0,10.0,78,0.00,,,0.00,meteohub,2013-04-23 23:23:00,
2013-04-23 18:29:00,56.7,50.2,29.96,NW,309,3.0,10.0,79,0.00,,,0.00,meteohub,2013-04-23 23:29:00,
2013-04-23 18:34:00,56.3,49.8,29.96,WNW,294,3.0,11.0,79,0.00,,,0.00,meteohub,2013-04-23 23:34:00,
2013-04-23 18:39:00,55.9,49.8,29.96,North,0,3.0,11.0,80,0.00,,,0.00,meteohub,2013-04-23 23:39:00,
2013-04-23 18:44:00,55.6,49.5,29.96,WNW,294,6.0,9.0,80,0.00,,,0.00,meteohub,2013-04-23 23:44:00,
2013-04-23 18:49:00,55.0,48.9,29.96,NW,325,3.0,9.0,80,0.00,,,0.00,meteohub,2013-04-23 23:49:00,
2013-04-23 18:54:00,54.5,48.7,29.96,WSW,250,4.0,9.0,81,0.00,,,0.00,meteohub,2013-04-23 23:54:00,
2013-04-23 18:59:00,54.1,48.4,29.96,NW,323,3.0,6.0,81,0.00,,,0.00,meteohub,2013-04-23 23:59:00,
2013-04-23 19:04:00,54.0,48.6,29.96,NW,316,2.0,7.0,82,0.00,,,0.00,meteohub,2013-04-24 00:04:00,
2013-04-23 19:09:00,53.8,48.4,29.97,NW,306,2.0,7.0,82,0.00,,,0.00,meteohub,2013-04-24 00:09:00,
2013-04-23 19:14:00,53.4,48.0,29.96,North,355,1.0,7.0,82,0.00,,,0.00,meteohub,2013-04-24 00:14:00,
2013-04-23 19:19:00,53.2,47.8,29.97,WNW,296,1.0,7.0,82,0.00,,,0.00,meteohub,2013-04-24 00:19:00,
2013-04-23 19:24:00,53.1,47.7,29.98,West,276,2.0,6.0,82,0.00,,,0.00,meteohub,2013-04-24 00:24:00,
2013-04-23 19:29:00,52.9,47.5,29.98,West,270,1.0,6.0,82,0.00,,,0.00,meteohub,2013-04-24 00:29:00,
2013-04-23 19:34:00,52.5,47.1,29.98,WNW,289,3.0,6.0,82,0.00,,,0.00,meteohub,2013-04-24 00:34:00,
2013-04-23 19:39:00,52.3,46.9,29.98,WSW,246,6.0,6.0,82,0.00,,,0.00,meteohub,2013-04-24 00:39:00,
2013-04-23 19:44:00,52.0,46.6,29.98,NNW,338,1.0,7.0,82,0.00,,,0.00,meteohub,2013-04-24 00:44:00,
2013-04-23 19:49:00,51.6,46.2,29.99,NNW,331,1.0,7.0,82,0.00,,,0.00,meteohub,2013-04-24 00:49:00,
2013-04-23 19:54:00,51.4,46.4,29.99,NNW,328,2.0,7.0,83,0.00,,,0.00,meteohub,2013-04-24 00:54:00,
2013-04-23 19:59:00,51.3,46.6,29.99,West,260,2.0,6.0,84,0.00,,,0.00,meteohub,2013-04-24 00:59:00,
2013-04-23 20:04:00,51.3,46.6,29.99,West,261,0.0,6.0,84,0.00,,,0.00,meteohub,2013-04-24 01:04:00,
2013-04-23 20:10:00,50.9,46.2,29.99,WSW,252,1.0,6.0,84,0.00,,,0.00,meteohub,2013-04-24 01:10:00,
2013-04-23 20:15:00,50.5,45.9,29.99,WNW,303,3.0,5.0,84,0.00,,,0.00,meteohub,2013-04-24 01:15:00,
2013-04-23 20:20:00,50.2,45.5,29.99,WNW,302,1.0,7.0,84,0.00,,,0.00,meteohub,2013-04-24 01:20:00,
2013-04-23 20:25:00,49.8,45.5,29.99,NW,306,3.0,7.0,85,0.00,,,0.00,meteohub,2013-04-24 01:25:00,
2013-04-23 20:30:00,49.6,45.7,30.00,WNW,303,0.0,7.0,86,0.00,,,0.00,meteohub,2013-04-24 01:30:00,
2013-04-23 20:35:00,49.5,45.5,30.00,NNE,24,1.0,7.0,86,0.00,,,0.00,meteohub,2013-04-24 01:35:00,
2013-04-23 20:40:00,49.3,45.0,30.00,WSW,254,6.0,6.0,85,0.00,,,0.00,meteohub,2013-04-24 01:40:00,
2013-04-23 20:45:00,48.9,44.6,30.00,WNW,283,2.0,6.0,85,0.00,,,0.00,meteohub,2013-04-24 01:45:00,
2013-04-23 20:50:00,48.7,44.4,30.01,WNW,298,3.0,9.0,85,0.00,,,0.00,meteohub,2013-04-24 01:50:00,
2013-04-23 20:55:00,48.7,44.1,30.01,North,355,2.0,9.0,84,0.00,,,0.00,meteohub,2013-04-24 01:55:00,
2013-04-23 21:00:00,48.7,43.9,30.01,West,274,5.0,7.0,83,0.00,,,0.00,meteohub,2013-04-24 02:00:00,
2013-04-23 21:05:00,48.6,43.7,30.02,North,5,0.0,9.0,83,0.00,,,0.00,meteohub,2013-04-24 02:05:00,
2013-04-23 21:12:00,48.4,43.2,30.02,NW,311,1.0,13.0,82,0.00,,,0.00,meteohub,2013-04-24 02:12:00,
2013-04-23 21:20:00,48.4,43.5,30.03,WNW,294,1.0,7.0,83,0.00,,,0.00,meteohub,2013-04-24 02:20:00,
2013-04-23 21:25:00,48.0,43.2,30.03,WNW,290,1.0,8.0,83,0.00,,,0.00,meteohub,2013-04-24 02:25:00,
2013-04-23 21:30:00,48.0,43.2,30.03,WNW,290,2.0,8.0,83,0.00,,,0.00,meteohub,2013-04-24 02:30:00,
2013-04-23 21:36:00,47.8,43.2,30.03,NW,311,1.0,6.0,84,0.00,,,0.00,meteohub,2013-04-24 02:36:00,
2013-04-23 21:42:00,47.8,43.5,30.04,WNW,297,1.0,7.0,85,0.00,,,0.00,meteohub,2013-04-24 02:42:00,
2013-04-23 21:47:00,47.8,43.5,30.04,NW,319,1.0,7.0,85,0.00,,,0.00,meteohub,2013-04-24 02:47:00,
2013-04-23 21:52:00,47.7,43.0,30.04,NNW,330,1.0,7.0,84,0.00,,,0.00,meteohub,2013-04-24 02:52:00,
2013-04-23 21:57:00,47.7,43.0,30.05,West,274,1.0,5.0,84,0.00,,,0.00,meteohub,2013-04-24 02:57:00,
2013-04-23 22:02:00,47.7,43.0,30.05,WNW,294,4.0,5.0,84,0.00,,,0.00,meteohub,2013-04-24 03:02:00,
2013-04-23 22:09:00,47.5,43.2,30.05,WNW,298,0.0,10.0,85,0.00,,,0.00,meteohub,2013-04-24 03:09:00,
2013-04-23 22:14:00,47.3,43.0,30.05,NW,313,1.0,10.0,85,0.00,,,0.00,meteohub,2013-04-24 03:14:00,
2013-04-23 22:21:00,47.3,43.0,30.05,NNE,27,3.0,9.0,85,0.00,,,0.00,meteohub,2013-04-24 03:21:00,
2013-04-23 22:26:00,46.9,42.6,30.06,NW,305,1.0,7.0,85,0.00,,,0.00,meteohub,2013-04-24 03:26:00,
2013-04-23 22:32:00,46.9,42.4,30.06,NW,313,3.0,7.0,84,0.00,,,0.00,meteohub,2013-04-24 03:32:00,
2013-04-23 22:37:00,46.9,42.4,30.06,WNW,288,0.0,7.0,84,0.00,,,0.00,meteohub,2013-04-24 03:37:00,
2013-04-23 22:42:00,46.9,42.6,30.06,NW,314,1.0,5.0,85,0.00,,,0.00,meteohub,2013-04-24 03:42:00,
2013-04-23 22:47:00,46.9,42.6,30.06,NNE,29,1.0,5.0,85,0.00,,,0.00,meteohub,2013-04-24 03:47:00,
2013-04-23 22:52:00,46.9,42.4,30.06,NNW,342,1.0,5.0,84,0.00,,,0.00,meteohub,2013-04-24 03:52:00,
2013-04-23 22:57:00,46.8,42.3,30.06,NW,306,2.0,8.0,84,0.00,,,0.00,meteohub,2013-04-24 03:57:00,
2013-04-23 23:01:00,46.8,42.3,30.06,NW,311,1.0,8.0,84,0.00,,,0.00,meteohub,2013-04-24 04:01:00,
2013-04-23 23:02:00,46.8,42.3,30.07,WNW,290,1.0,8.0,84,0.00,,,0.00,meteohub,2013-04-24 04:02:00,
2013-04-23 23:07:00,46.9,42.4,30.07,NW,313,1.0,8.0,84,0.00,,,0.00,meteohub,2013-04-24 04:07:00,
2013-04-23 23:12:00,46.8,42.3,30.07,WNW,294,0.0,8.0,84,0.00,,,0.00,meteohub,2013-04-24 04:12:00,
2013-04-23 23:17:00,46.8,42.3,30.08,West,272,0.0,8.0,84,0.00,,,0.00,meteohub,2013-04-24 04:17:00,
2013-04-23 23:22:00,46.8,42.3,30.08,NE,35,2.0,8.0,84,0.00,,,0.00,meteohub,2013-04-24 04:22:00,
2013-04-23 23:27:00,46.8,42.3,30.08,ESE,122,2.0,7.0,84,0.00,,,0.00,meteohub,2013-04-24 04:27:00,
2013-04-23 23:32:00,46.8,42.4,30.08,NNW,332,5.0,7.0,85,0.00,,,0.00,meteohub,2013-04-24 04:32:00,
2013-04-23 23:37:00,46.8,42.3,30.09,WNW,302,3.0,11.0,84,0.00,,,0.00,meteohub,2013-04-24 04:37:00,
2013-04-23 23:42:00,46.8,42.3,30.09,WSW,253,0.0,11.0,84,0.00,,,0.00,meteohub,2013-04-24 04:42:00,
2013-04-23 23:47:00,46.6,42.1,30.09,NW,308,0.0,11.0,84,0.00,,,0.00,meteohub,2013-04-24 04:47:00,
2013-04-23 23:52:00,46.6,42.3,30.09,NW,325,1.0,7.0,85,0.00,,,0.00,meteohub,2013-04-24 04:52:00,
2013-04-23 23:57:00,46.6,42.3,30.09,WNW,291,4.0,6.0,85,0.00,,,0.00,meteohub,2013-04-24 04:57:00,